Location: ????????
(56.1167°N, 38.6333°E)
Time: 20:44:06
(UTC+00:00)

CZ-2D R/B - Pass Details

Date: 18 November 2025
Orbit: 525 x 597 km, 98.0° (Epoch: 14 December)

Event Time Altitude Azimuth Distance (km) Brightness Sun altitude
Rises 14:36:56 0° 139° (SE) 2,809 6.7 -11.4°
Reaches altitude 10° 14:39:10 10° 132° (SE) 1,921 5.8 -11.7°
Maximum altitude 14:43:03 38° 64° (ENE) 915 3.9 -12.2°
Drops below altitude 10° 14:46:59 10° 356° (N) 1,953 6.0 -12.8°
Sets 14:49:16 0° 349° (N) 2,861 6.9 -13.1°
